AIRSAT-02

operational
NORAD ID: 61239 Int'l Des: NNA 2024-174 Owner: ZHWK/JIG Country: CN
LEOCIRCULARRETROGRADESSO

关于 AIRSAT-02

正在加载描述...

实时位置

正在加载3D地球...

即将过境

高度历史

Altitude vs Time

uPlot chart will show altitude changes over time

两行轨道根数

1 61239U 24174B 26063.01037050 .00006144 00000-0 38626-3 0 9995
2 61239 97.4503 69.3551 0019545 292.8361 67.0804 15.09432570 79529
Epoch: Mar 4, 2026 • Age: 12 hours

当前状态

高度 560.3 km
速度 7.58 km/s
星下点 69.81°N, 71.36°E
发射日期 Sep 24, 2024
运行时间 1.4 years
类型 other

技术详情

分类 Payload
质量 250.00 kg
干质量 250.00 kg
总质量 250.00 kg
长度 1.00 m
直径 1.00 m
跨度 6.00 m
形状 Box+3 pan
制造商 ZHWK/HITSAT
平台类型 ZK1
阶段状态 In Orbit
所有者/国家 ZHWK/JIG/CN

大型星座

Loading constellations...